Overview Statistics Trail Chart Weather Telemetry Raw packets
 

This is the latest recevied weather packets stored in our database for station/object W5MAI. If no packets are shown the sender has not sent any weather packets the latest 10 day(s).

<< 27 28 29 30 31 32 33 >>
Time Temp. Humidity Pressure Rain* Wind** Luminosity Snow
1788170045 25° C 89% 1018 hPa 0 mm - 0 W/m² -
1788168826 25° C 89% 1017.7 hPa 0 mm - 0 W/m² -
1788168259 25° C 89% 1017.8 hPa 0 mm - 0 W/m² -
1788167622 24.44° C 89% 1017.8 hPa 0 mm - 0 W/m² -
1788167053 24.44° C 89% 1017.9 hPa 0 mm - 0 W/m² -
1788165831 24.44° C 87% 1017.8 hPa 0 mm - 0 W/m² -
1788165261 24.44° C 86% 1017.8 hPa 0 mm - 0 W/m² -
1788163427 25° C 84% 1018 hPa 0 mm - 0 W/m² -
1788162858 25.56° C 83% 1018 hPa 0 mm - 0 W/m² -
1788162221 25.56° C 83% 1018 hPa 0 mm - 0 W/m² -
1788161649 25.56° C 82% 1017.9 hPa 0 mm - 0 W/m² -
1788161010 25.56° C 82% 1017.7 hPa 0 mm - 0 W/m² -
1788160420 26.11° C 81% 1017.7 hPa 0 mm - 0 W/m² -
1788159822 26.11° C 80% 1017.8 hPa 0 mm - 0 W/m² -
1788159208 26.11° C 79% 1017.9 hPa 0 mm - 0 W/m² -
1788158612 26.11° C 79% 1018.1 hPa 0 mm - 0 W/m² -
1788158024 26.67° C 78% 1018 hPa 0 mm - 0 W/m² -
1788157406 26.67° C 77% 1018 hPa 0 mm - 0 W/m² -
1788156806 26.67° C 76% 1017.8 hPa 0 mm - 0 W/m² -
1788156219 26.67° C 76% 1017.7 hPa 0 mm - 0 W/m² -
1788155604 27.22° C 74% 1017.8 hPa 0 mm - 0 W/m² -
1788155008 27.22° C 73% 1017.5 hPa 0 mm - 0 W/m² -
1788154422 27.22° C 72% 1017.5 hPa 0 mm - 0 W/m² -
1788153805 27.78° C 72% 1017.5 hPa 0 mm - 0 W/m² -
1788153210 27.78° C 70% 1017.6 hPa 0 mm - 0 W/m² -

* Rain latest hour (hover to see other rain measurements)
** Current wind speed in m/s (hover to see current wind gust speed)